Погода в Липовцах

Россия / Приморский край     44°11′52″N   131°43′06″E
темп.,
°C
ветер,
м/с
пор.,
м/с
влажн.,
%
обл.,
%
осадки,
мм/ч
давл.,
гПа
погр.,
м
20 апреля, вт
вт2001:00+12ссз812535 0.0 1007961
04:00+8с711338 0.0 10131357
07:00+5ссз512340 0.0 10161272
10:00+8сз714180 0.0 10171929
13:00+12зсз1015120 0.0 10162537
16:00+14сз916130 0.0 10152518
19:00+13сз614170 0.0 10162216
22:00+9з22260 0.0 101923
21 апреля, ср
ср2101:00+8зсз22290 0.0 102020
04:00+7зсз22300 0.0 102012
07:00+6юз11335 0.0 102110
10:00+13ююз22220 0.0 1022359
13:00+18ююз33160 0.0 10201163
16:00+21ю34152 0.0 10181706
19:00+20ююв46215 0.0 1017273
22:00+13ююв25315 0.0 1019103
22 апреля, чт
чт2201:00+10ююв26415 0.0 1020137
04:00+9ю245999 0.0 102085
07:00+9ююв2370100 0.0 102157
10:00+14ю235199 0.0 1022318
13:00+18ю7845100 0.0 1021712
16:00+17ю91329100 0.0 1021720
19:00+12ю81444100 0.0 1022466
22:00+9ю81549100 0.0 1024511
23 апреля, пт
пт2301:00+8ю6145085 0.0 1025462
04:00+7ю51156100 0.0 1025346
07:00+6ю4962100 0.0 1025273
10:00+10ю5655100 0.0 1025375
13:00+16ююз4543100 0.0 1024650
16:00+19ю4437100 0.0 1022895
19:00+16ююв3550100 0.0 1022199
22:00+13ююз2358100 0.0 102278
24 апреля, сб
сб2401:00+13зсз1261100 0.0 102211
04:00+11с497876 0.0 1022354
07:00+6с81268100 0.1 1025849
10:00+4с61159100 0.5 10271046
13:00+11с7916100 0.1 10241794
16:00+13ссз7101632 0.1 10222184
19:00+12с711210 0.0 10222299
22:00+8сз222811 0.0 102225